Regional Weather Roundup
Issued by NWS Northern Indiana

Home | Current Version | Previous Version | Graphics & Text | Print | Product List | Glossary On
Versions: 1 2 3 4 5 6 7 8 9 10 11 12 13 14 15 16 17 18 19 20 21 22 23 24 25 26 27 28 29 30 31 32 33 34 35 36 37 38 39 40 41 42 43 44 45 46 47 48 49 50
000
ASUS43 KIWX 260010
RWRIWX

KIWX WEATHER ROUNDUP
NATIONAL WEATHER SERVICE NORTHERN INDIANA
800 PM EDT MON MAY 25 2015

NOTE: "FAIR" INDICATES FEW OR NO CLOUDS BELOW 12,000 FEET WITH NO
SIGNIFICANT WEATHER AND/OR OBSTRUCTIONS TO VISIBILITY.

* THESE STATIONS ARE NOT UNDER NWS QUALITY CONTROL. THEY ALSO MAY NOT
  REPORT WEATHER SUCH AS PRECIPITATION OR FOG.

INZ001>027-260100-
NORTHERN INDIANA

CITY           SKY/WX    TMP DP  RH WIND       PRES   REMARKS
GARY*          MOSUNNY   82  55  39 SW14      29.93F
VALPARAISO     CLOUDY    80  56  43 SW13      29.95F
6HR MIN TEMP:  76; 6HR MAX TEMP:  81;

MICHIGAN CITY* CLOUDY    77  55  47 SW8       29.94S
LAPORTE*       CLOUDY    79  58  47 SW13      29.96S
6HR MIN TEMP:  75; 6HR MAX TEMP:  81;

KNOX*          CLOUDY    79  54  41 SW9       29.95S
SOUTH BEND     CLOUDY    79  56  45 SW12      29.95F
6HR MIN TEMP:  73; 6HR MAX TEMP:  82;

ELKHART*       SUNNY     77  55  47 SW8       29.96S
GOSHEN         PTSUNNY   77  57  50 SW13      29.96S
6HR MIN TEMP:  75; 6HR MAX TEMP:  82; 6HR PCP: TRACE;

MONTICELLO*    CLOUDY    76  63  64 S13       29.98R
6HR MIN TEMP:  76; 6HR MAX TEMP:  81;

LOGANSPORT*    CLOUDY    75  59  57 SW14G25   30.01S
ROCHESTER*     CLOUDY    79  63  57 S12G18    29.99S
WARSAW*        PTSUNNY   77  61  57 SW9       29.98R
ANGOLA*        PTCLDY    79  72  78 SW12      29.97S
FORT WAYNE     CLOUDY    77  61  57 SW16      30.01R
6HR MIN TEMP:  76; 6HR MAX TEMP:  81; 6HR PCP: TRACE;

HUNTINGTON*    CLOUDY    76  61  59 SW10G16   30.01R
6HR MIN TEMP:  76; 6HR MAX TEMP:  79;

PERU/GRISSOM   CLOUDY    76  63  63 SW13      30.00R
6HR MIN TEMP:  71; 6HR MAX TEMP:  81; 6HR PCP:  0.05;

MARION*        CLOUDY    76  60  56 SW13      30.03R
6HR MIN TEMP:  29; 6HR MAX TEMP:  86;


$$
INZ028>050-260100-
CENTRAL INDIANA

CITY           SKY/WX    TMP DP  RH WIND       PRES   REMARKS
LAFAYETTE      CLOUDY    76  62  62 S12       29.99S
6HR MIN TEMP:  76; 6HR MAX TEMP:  80;

KOKOMO*        CLOUDY    77  63  61 SW16      30.01S
6HR MIN TEMP:  73; 6HR MAX TEMP:  81;

MUNCIE*        MOCLDY    76  63  64 SW13G22   30.04S
6HR MIN TEMP:  74; 6HR MAX TEMP:  80;

INDIANAPOLIS   CLOUDY    74  63  68 S18       30.01F
6HR MIN TEMP:  74; 6HR MAX TEMP:  79;


$$
MIZ043>046-050>051-056>058-064>065-071>073-077>080-260100-
SOUTHWEST LOWER MICHIGAN

CITY           SKY/WX    TMP DP  RH WIND       PRES   REMARKS
BATTLE CREEK   PTSUNNY   75  60  59 W10       29.96R
6HR MIN TEMP:  70; 6HR MAX TEMP:  81; 6HR PCP:  0.02;

BENTON HARBOR  CLOUDY    73  59  61 SW8       29.93F
6HR MIN TEMP:  67; 6HR MAX TEMP:  74;

COLDWATER*     CLOUDY    76  55  49 W10G24    29.97R
6HR MIN TEMP:  75; 6HR MAX TEMP:  79;

HILLSDALE*     CLOUDY    77  61  58 SW13      29.99R
6HR MIN TEMP:  76; 6HR MAX TEMP:  82;

HOLLAND        PTSUNNY   74  60  61 SW14      29.93S
6HR MIN TEMP:  68; 6HR MAX TEMP:  75; 6HR PCP: TRACE;

GRAND RAPIDS   PTSUNNY   73  61  65 SW15G24   29.93S
6HR MIN TEMP:  68; 6HR MAX TEMP:  77; 6HR PCP:  0.40;

KALAMAZOO      PTSUNNY   75  59  57 W9        29.95S
6HR MIN TEMP:  71; 6HR MAX TEMP:  82; 6HR PCP:  0.07;

STURGIS*       PTSUNNY   77  57  50 SW10      29.96S
THREE RIVERS*  FAIR      76  58  53 SW7       29.96R
6HR MIN TEMP:  70; 6HR MAX TEMP:  79;


$$
OHZ001>008-015>018-024>025-260100-
NORTHWEST OHIO

CITY           SKY/WX    TMP DP  RH WIND       PRES   REMARKS
WAUSEON*       FAIR      79  63  57 SW15G24   29.99R
DEFIANCE       MOCLDY    79  60  52 SW13G22   29.99R
6HR MIN TEMP:  78; 6HR MAX TEMP:  82; 6HR PCP: TRACE;

FINDLAY        PTCLDY    76  62  62 S21       30.02R
6HR MIN TEMP:  76; 6HR MAX TEMP:  82;

TOLEDO EXPRESS MOCLDY    79  60  52 SW15G28   29.98R
6HR MIN TEMP:  77; 6HR MAX TEMP:  81; 6HR PCP: TRACE;

TOLEDO METCALF MOCLDY    80  59  48 SW21G30   29.99R
6HR MIN TEMP:  78; 6HR MAX TEMP:  82; 6HR PCP: TRACE;

LIMA           PTCLDY    75  61  61 SW16      30.04R
6HR MIN TEMP:  72; 6HR MAX TEMP:  79;


$$
AND FOR LAKE MICHIGAN COASTAL AND OPEN LAKE BUOY OBSERVATIONS

STATION/POSITION TEMP    WIND        PRES    VSBY  WAVE
                 AIR SEA DIR/SP/G                  HT/PER
                 (F)     (DEG/KT/KT) (MB)    (MI)  (FT/S)
CALUMET HARBOR    79     230/  6/ 11   N/A
MICHIGAN CITY     78     200/ 12/ 15   N/A
BURNS HARBOR      79     220/ 14/ 21 1013.9S
SAINT JOSEPH      69     180/  9/ 13 1014.2F
SOUTH LAKE BUOY   48 38  200/ 10/ 12 1013.0S         1/ 4
4 MI NW BRIDGMAN  60 55  220/  6/  8   N/A           2/ 4
MICHIGAN CITY     64 52  240/  8/ 10   N/A           1/ 3

$$
&&


USA.gov is the U.S. government's official web portal to all federal, state and local government web resources and services.